Vinton, IA

3:43 AM CDT on September 27, 2016 (GMT -0500)
Vinton-Veterans Memorial

Weather History for KVTI - December, 2012

Change the Weather History Date:

Monday, December 31, 2012

  Actual Average Record
Temperature  
Mean Temperature 20 °F -  
Max Temperature 32 °F 27 °F 60 °F (1965)
Min Temperature 7 °F 9 °F -19 °F (1976)
Degree Days  
Heating Degree Days 46    
Moisture  
Dew Point 8 °F    
Average Humidity 72    
Maximum Humidity 80    
Minimum Humidity 65    
Precipitation  
Precipitation 0.00 in - - ()
Sea Level Pressure  
Sea Level Pressure 30.14 in    
Wind  
Wind Speed 10 mph (NW)    
Max Wind Speed 16 mph    
Max Gust Speed 20 mph    
Visibility 10 miles    
Events      
Averages and records for this station are not official NWS values.
T = Trace of Precipitation, MM = Missing Value Source: NWS Daily Summary

Daily Weather History Graph

Daily Weather History Graph

Search for Another Location

Airport or City:

Trip Planner

Search our weather history database for the weather conditions in past years. The results will help you decide how hot, cold, wet, or windy it might be!

Date:

Astronomy

Dec. 31, 2012 Rise Set
Actual Time 7:36 AM CST 4:46 PM CST
Civil Twilight 7:05 AM CST 5:17 PM CST
Nautical Twilight 6:29 AM CST 5:53 PM CST
Astronomical Twilight 5:55 AM CST 6:27 PM CST
Moon 8:21 PM CST (12/31) 9:14 AM CST (12/31)
Length of Visible Light 10h 12m
Length of Day
9h 09m
Waning Gibbous, 90% of the Moon is Illuminated
Dec 31
Waning Gibbous
Jan 4
Last Quarter
Jan 11
New
Jan 18
First Quarter
Jan 26
Full

Hourly Weather History & Observations

Time (CST) Temp. Windchill Dew Point Humidity Pressure Visibility Wind Dir Wind Speed Gust Speed Precip Events Conditions
12:15 AM 32.4 °F 25.3 °F 24.3 °F 72% 30.01 in 10.0 mi West 8.1 mph - N/A   Clear
12:35 AM 30.2 °F 21.9 °F 22.5 °F 73% 30.00 in 10.0 mi West 9.2 mph - N/A   Clear
12:55 AM 27.5 °F 19.3 °F 20.8 °F 76% 30.01 in 10.0 mi West 8.1 mph - N/A   Clear
1:15 AM 27.5 °F 18.0 °F 20.8 °F 76% 30.01 in 10.0 mi West 10.4 mph - N/A   Clear
1:55 AM 25.2 °F 12.4 °F 18.9 °F 77% 30.02 in 10.0 mi WNW 16.1 mph - N/A   Clear
2:35 AM 22.6 °F 11.3 °F 16.3 °F 77% 30.06 in 10.0 mi WNW 11.5 mph - N/A   Clear
2:55 AM 22.6 °F 11.9 °F 16.3 °F 77% 30.07 in 10.0 mi WNW 10.4 mph 17.3 mph N/A   Clear
3:15 AM 21.6 °F 10.6 °F 15.4 °F 77% 30.08 in 10.0 mi West 10.4 mph - N/A   Clear
3:35 AM 20.5 °F 8.0 °F 14.4 °F 77% 30.08 in 10.0 mi West 12.7 mph 16.1 mph N/A   Clear
3:55 AM 20.3 °F 6.6 °F 14.0 °F 77% 30.07 in 10.0 mi WNW 15.0 mph - N/A   Clear
4:15 AM 19.0 °F 6.1 °F 12.9 °F 77% 30.08 in 10.0 mi WNW 12.7 mph - N/A   Clear
4:35 AM 17.6 °F 5.0 °F 11.8 °F 78% 30.09 in 10.0 mi NW 11.5 mph - N/A   Clear
4:55 AM 17.6 °F 4.3 °F 12.0 °F 79% 30.08 in 10.0 mi WNW 12.7 mph 18.4 mph N/A   Clear
5:15 AM 15.4 °F 2.3 °F 9.9 °F 79% 30.10 in 10.0 mi WNW 11.5 mph - N/A   Clear
5:35 AM 15.3 °F 0.8 °F 9.7 °F 79% 30.11 in 10.0 mi WNW 13.8 mph - N/A   Clear
6:15 AM 15.3 °F 4.4 °F 10.0 °F 80% 30.11 in 10.0 mi NW 8.1 mph - N/A   Clear
6:35 AM 15.3 °F 3.5 °F 10.0 °F 80% 30.11 in 10.0 mi NNW 9.2 mph - N/A   Clear
6:55 AM 15.3 °F 3.5 °F 9.7 °F 79% 30.11 in 10.0 mi NNW 9.2 mph - N/A   Clear
7:35 AM 15.3 °F 3.5 °F 9.5 °F 78% 30.12 in 10.0 mi NNW 9.2 mph - N/A   Clear
7:55 AM 15.3 °F 3.5 °F 9.9 °F 79% 30.13 in 10.0 mi NW 9.2 mph - N/A   Clear
8:15 AM 15.3 °F 4.4 °F 10.0 °F 80% 30.13 in 10.0 mi NW 8.1 mph - N/A   Clear
8:35 AM 15.3 °F 4.4 °F 10.0 °F 80% 30.13 in 10.0 mi WNW 8.1 mph - N/A   Clear
8:55 AM 15.3 °F 4.4 °F 10.2 °F 80% 30.14 in 10.0 mi NW 8.1 mph - N/A   Clear
9:15 AM 15.3 °F 2.8 °F 9.5 °F 78% 30.14 in 10.0 mi NW 10.4 mph - N/A   Clear
9:35 AM 15.8 °F 3.4 °F 10.0 °F 78% 30.15 in 10.0 mi NNW 10.4 mph - N/A   Clear
9:55 AM 16.3 °F 5.7 °F 9.5 °F 74% 30.16 in 10.0 mi NNW 8.1 mph - N/A   Clear
10:15 AM 15.8 °F 3.4 °F 8.6 °F 73% 30.16 in 10.0 mi NNW 10.4 mph - N/A   Clear
10:35 AM 15.3 °F 0.8 °F 7.5 °F 71% 30.16 in 10.0 mi North 13.8 mph 19.6 mph N/A   Scattered Clouds
10:55 AM 15.3 °F -0.4 °F 7.3 °F 71% 30.16 in 10.0 mi North 16.1 mph - N/A   Clear
11:15 AM 15.3 °F 0.2 °F 6.8 °F 69% 30.15 in 10.0 mi NNW 15.0 mph - N/A   Clear
11:35 AM 15.3 °F -0.4 °F 6.6 °F 69% 30.16 in 10.0 mi NNW 16.1 mph 19.6 mph N/A   Clear
11:55 AM 15.3 °F 0.2 °F 6.3 °F 68% 30.16 in 10.0 mi NNW 15.0 mph 18.4 mph N/A   Clear
12:15 PM 15.4 °F 1.0 °F 6.6 °F 68% 30.15 in 10.0 mi NNW 13.8 mph 19.6 mph N/A   Clear
12:35 PM 15.6 °F 1.8 °F 6.6 °F 68% 30.15 in 10.0 mi NNW 12.7 mph - N/A   Clear
12:55 PM 15.6 °F 1.2 °F 6.6 °F 68% 30.15 in 10.0 mi NNW 13.8 mph - N/A   Clear
1:15 PM 15.8 °F 2.7 °F 6.8 °F 68% 30.14 in 10.0 mi NNW 11.5 mph 19.6 mph N/A   Clear
1:35 PM 15.8 °F 2.1 °F 6.6 °F 67% 30.14 in 10.0 mi NNW 12.7 mph 16.1 mph N/A   Clear
1:55 PM 16.3 °F 4.1 °F 6.8 °F 66% 30.14 in 10.0 mi North 10.4 mph 17.3 mph N/A   Clear
2:15 PM 16.5 °F 4.3 °F 6.8 °F 66% 30.14 in 10.0 mi NNW 10.4 mph - N/A   Clear
2:35 PM 17.6 °F 5.0 °F 7.5 °F 65% 30.14 in 10.0 mi NNW 11.5 mph - N/A   Clear
2:55 PM 17.6 °F 7.3 °F 7.7 °F 65% 30.13 in 10.0 mi NNW 8.1 mph - N/A   Clear
3:15 PM 17.6 °F 5.0 °F 7.7 °F 65% 30.13 in 10.0 mi NNW 11.5 mph - N/A   Clear
3:35 PM 17.4 °F 5.4 °F 8.2 °F 67% 30.13 in 10.0 mi NNW 10.4 mph - N/A   Clear
3:55 PM 15.8 °F 3.4 °F 6.8 °F 68% 30.14 in 10.0 mi NNW 10.4 mph - N/A   Clear
4:15 PM 15.3 °F 3.5 °F 5.9 °F 67% 30.13 in 10.0 mi NNW 9.2 mph - N/A   Clear
4:35 PM 15.3 °F 3.5 °F 5.9 °F 67% 30.13 in 10.0 mi NNW 9.2 mph - N/A   Clear
4:55 PM 15.3 °F 3.5 °F 5.7 °F 66% 30.14 in 10.0 mi NNW 9.2 mph - N/A   Clear
5:15 PM 15.3 °F 3.5 °F 5.9 °F 67% 30.13 in 10.0 mi NNW 9.2 mph - N/A   Clear
5:35 PM 15.3 °F 3.5 °F 6.4 °F 68% 30.15 in 10.0 mi NNW 9.2 mph - N/A   Clear
5:55 PM 15.3 °F 4.4 °F 5.9 °F 67% 30.15 in 10.0 mi NNW 8.1 mph - N/A   Clear
6:15 PM 15.3 °F 0.2 °F 5.7 °F 66% 30.14 in 10.0 mi North 15.0 mph 19.6 mph N/A   Clear
6:35 PM 15.3 °F 2.0 °F 5.7 °F 66% 30.16 in 10.0 mi NNW 11.5 mph - N/A   Clear
6:55 PM 14.2 °F -1.2 °F 5.0 °F 67% 30.16 in 10.0 mi North 15.0 mph 18.4 mph N/A   Clear
7:15 PM 12.7 °F 1.4 °F 3.0 °F 65% 30.18 in 10.0 mi NNW 8.1 mph - N/A   Clear
7:35 PM 12.7 °F -1.1 °F 2.8 °F 65% 30.18 in 10.0 mi North 11.5 mph - N/A   Clear
7:55 PM 12.7 °F -0.4 °F 3.6 °F 67% 30.18 in 10.0 mi NNW 10.4 mph - N/A   Clear
8:15 PM 12.7 °F 0.4 °F 3.6 °F 67% 30.19 in 10.0 mi NNW 9.2 mph - N/A   Clear
8:35 PM 12.7 °F 0.4 °F 3.7 °F 67% 30.20 in 10.0 mi North 9.2 mph - N/A   Clear
9:15 PM 12.7 °F 0.4 °F 4.1 °F 68% 30.20 in 10.0 mi NNW 9.2 mph - N/A   Clear
9:35 PM 10.9 °F -0.8 °F 2.7 °F 69% 30.20 in 10.0 mi NNW 8.1 mph - N/A   Clear
9:55 PM 10.2 °F 0.6 °F 2.3 °F 70% 30.21 in 10.0 mi NNW 5.8 mph - N/A   Clear
10:15 PM 10.2 °F 0.6 °F 2.3 °F 70% 30.21 in 10.0 mi NNW 5.8 mph - N/A   Clear
10:35 PM 9.0 °F 0.6 °F 1.4 °F 71% 30.23 in 10.0 mi NNW 4.6 mph - N/A   Clear
10:55 PM 9.0 °F -0.9 °F 1.4 °F 71% 30.23 in 10.0 mi NNW 5.8 mph - N/A   Clear
11:15 PM 7.7 °F -0.9 °F 0.5 °F 72% 30.24 in 10.0 mi NNW 4.6 mph - N/A   Clear
11:35 PM 7.7 °F -0.9 °F 0.5 °F 72% 30.25 in 10.0 mi NNW 4.6 mph - N/A   Clear
11:55 PM 7.7 °F -3.7 °F 0.5 °F 72% 30.24 in 10.0 mi NNW 6.9 mph - N/A   Clear